Home > Time Zones > World Clock > Weather > France > Metz > Past weeks

Flag for France Weather past 2 weeks in Metz, France

Now
75 °F

Partly sunny.


Feels Like: 78 °F
Forecast: 56 / 77 °F
Wind: 6 mph from East

Location: Metz-Nancy-Lorraine

Current Time: Sep 16, 2014 at 4:04:08 PM

Latest Report: Sep 16, 2014 at 3:30 PM


Visibility: N/A

Pressure: 29.95 "Hg

Humidity: 57%

Dew point: 59 °F

Location of MetzLocation

Historic Weather in Metz — Graph

°F

Metz temperature yesterday

Maximum temperature yesterday: 73 °F (at 5:00 PM)
Minimum temperature yesterday: 50 °F (at 7:30 AM)
Average temperature yesterday: 61 °F

Past Weeks' High & Low Weather Summary

 TemperatureHumidityPressure
High79 °F (Sep 5, 4:30 PM)100% (Sep 2, 5:30 AM)30.18 "Hg (Sep 2, 5:30 AM)
Low46 °F (Sep 11, 6:00 AM)45% (Sep 5, 5:30 PM)29.92 "Hg (Sep 5, 5:30 PM)
Average62 °F75%30.05 "Hg
* Reported Sep 1 3:00 PM — Sep 16 3:00 PM, Metz, Weather by CustomWeather, © 2014

Note: Actual official high and low records may vary slightly from our data, if they occured in-between our weather recording intervals... More about our weather records

Advertising

Metz weather history for previous 24 hours

 ConditionsComfort  
Time TempWeatherWind HumidityBarometerVisibility
3:00 PM
Sep 16
73 °FPartly sunny.5 mph61%29.95 "HgN/A
2:30 PM75 °FPassing clouds.3 mph57%29.95 "HgN/A
2:00 PM73 °FClear.3 mph61%29.95 "HgN/A
1:30 PM72 °FClear.5 mph61%29.98 "HgN/A
1:00 PM72 °FClear.5 mph65%29.98 "HgN/A
12:30 PM70 °FClear.5 mph64%29.98 "HgN/A
12:00 PM68 °FClear.6 mph73%29.98 "HgN/A
11:30 AM64 °FClear.3 mph83%30.01 "HgN/A
11:00 AM63 °FPartly sunny.6 mph83%30.01 "HgN/A
10:30 AM61 °FLow clouds.3 mph88%30.01 "Hg5 mi
10:00 AM59 °FLow clouds.6 mph94%30.01 "Hg5 mi
9:30 AM55 °FFog.3 mph100%30.01 "Hg1 mi
9:00 AM55 °FFog.3 mph100%29.98 "Hg1 mi
8:30 AM54 °FFog.2 mph100%29.98 "Hg1 mi
8:00 AM54 °FFog.3 mph94%29.98 "Hg0 mi
7:30 AM52 °FFog.3 mph94%29.98 "Hg0 mi
7:00 AM52 °FDense fog.3 mph94%29.98 "Hg1 mi
6:30 AM54 °FFog.3 mph94%29.98 "Hg2 mi
6:00 AM54 °FFog.5 mph94%29.98 "Hg2 mi
5:30 AM54 °FFog.6 mph94%29.98 "Hg3 mi
5:00 AM54 °FFog.5 mph94%29.98 "Hg3 mi
4:30 AM54 °FClear.3 mph94%29.98 "Hg4 mi
4:00 AM55 °FClear.2 mph88%29.98 "Hg4 mi
3:30 AM54 °FClear.5 mph94%29.98 "Hg4 mi
3:00 AM54 °FClear.2 mph94%29.98 "Hg5 mi
2:30 AM54 °FClear.No wind88%29.98 "HgN/A
2:00 AM54 °FClear.2 mph88%29.98 "HgN/A
1:30 AM57 °FClear.No wind88%29.98 "HgN/A
1:00 AM57 °FClear.3 mph88%29.98 "HgN/A
12:30 AM57 °FClear.2 mph88%29.98 "HgN/A
12:00 AM59 °FClear.No wind82%29.98 "HgN/A
11:30 PM
Sep 15
59 °FClear.1 mph82%29.98 "HgN/A
11:00 PM59 °FClear.7 mph82%29.98 "HgN/A
10:30 PM61 °FClear.10 mph77%29.98 "HgN/A
10:00 PM61 °FClear.12 mph77%29.98 "HgN/A
9:30 PM63 °FClear.12 mph77%29.98 "HgN/A
9:00 PM63 °FClear.10 mph77%29.98 "HgN/A
8:30 PM64 °FClear.10 mph73%29.98 "HgN/A
8:00 PM64 °FClear.10 mph73%29.98 "HgN/A
7:30 PM66 °FClear.12 mph68%29.95 "HgN/A
7:00 PM68 °FClear.10 mph69%29.95 "HgN/A
6:30 PM70 °FPassing clouds.13 mph64%29.95 "HgN/A
6:00 PM70 °FPartly sunny.14 mph64%29.95 "HgN/A
5:30 PM73 °FPartly sunny.9 mph57%29.95 "HgN/A
5:00 PM73 °FClear.7 mph57%29.95 "HgN/A
4:30 PM72 °FScattered clouds.10 mph57%29.95 "HgN/A
4:00 PM72 °FClear.10 mph57%29.95 "HgN/A
Weather by CustomWeather, © 2014

See weather overviewHow to use our weather pages